Sign In / Sign Up
 
 
Wind Of Changes Regatta. Leg 3. 13/04 - 19/04



Race Date (UTC) # I place II place III place Track
Race3083 2015-04-15 23:47:07 8 llhnumhs ScansTe Sakapuce
Race3082 2015-04-15 23:44:47 8 Gstille Newcastle 101 HELLO KITTY
Race3081 2015-04-15 23:42:36 2 Sakapuce colo
Race3080 2015-04-15 23:40:44 7 cricola ScansTe Vela Blanca
Race3079 2015-04-15 23:38:15 5 heidi HELLO KITTY ARG-35
Race3078 2015-04-15 23:35:46 4 Sakapuce JULEPE Nano
Race3077 2015-04-15 23:33:10 6 ScansTe cricola Silver Bullet
Race3076 2015-04-15 23:30:32 8 Agilulfo J122 tempete
Race3075 2015-04-15 23:27:46 8 GoneSailing Nano Sakapuce
Race3074 2015-04-15 23:25:12 8 HELLO KITTY HotTuna! Agilulfo
Race3073 2015-04-15 23:24:09 2 URU401 uru335😃😃
Race3072 2015-04-15 23:21:16 8 Sakapuce ZDAMEN VADASOLA1
Race3071 2015-04-15 23:19:27 4 HELLO KITTY cricola Ponce a vela
Race3070 2015-04-15 23:17:59 8 Mister Bee HotTuna! PISKAREV GALOPIN SB3324RUS
Race3069 2015-04-15 23:16:14 8 heidi Sakapuce turnthepage
Race3068 2015-04-15 23:14:38 8 llhnumhs Agilulfo VADASOLA1
Race3067 2015-04-15 23:13:34 2 Ocirne Ponce a vela
Race3066 2015-04-15 23:11:53 8 ScansTe zvezdochka PISKAREV GALOPIN SB3324RUS
Race3065 2015-04-15 23:09:53 8 Loshkin HotTuna! HELLO KITTY
Race3064 2015-04-15 23:08:14 8 llhnumhs rosco Agilulfo
Race3063 2015-04-15 23:06:00 6 PISKAREV GALOPIN SB3324RUS Smorza Ponce a vela
Race3062 2015-04-15 23:05:06 8 tempete J122 HELLO KITTY
Race3061 2015-04-15 23:03:43 8 ScansTe Loshkin Ada
Race3060 2015-04-15 23:01:53 3 Merryweather Sakapuce SWE759
Race3059 2015-04-15 23:00:04 8 suiius II Lintel Smorza
Race3058 2015-04-15 22:58:38 8 colo tempete rosco
Race3057 2015-04-15 22:57:07 8 Ada ScansTe Ocirne
Race3056 2015-04-15 22:56:11 3 ligure mal du SWE759
Race3055 2015-04-15 22:55:01 8 llhnumhs Lintel Sakapuce
Race3054 2015-04-15 22:53:03 8 HELLO KITTY Smorza suiius II
Race3053 2015-04-15 22:51:42 8 Ada rosco ITA 1848
Race3052 2015-04-15 22:50:38 8 ScansTe LNZ CABOZO LNZ REVIRAO
Race3051 2015-04-15 22:49:22 2 ligure mal du
Race3050 2015-04-15 22:48:29 8 llhnumhs Lintel 7ANTS.org
Race3049 2015-04-15 22:47:10 2 Castor CDJ INFABBRICA
Race3048 2015-04-15 22:45:48 8 Ada HELLO KITTY Cerignola
Race3047 2015-04-15 22:44:12 8 ITA 85 TS rosco Ponce a vela
Race3046 2015-04-15 22:41:02 7 7ANTS.org ligure Lintel
Race3045 2015-04-15 22:39:55 8 Smorza llhnumhs Merryweather
Race3044 2015-04-15 22:38:29 8 HELLO KITTY rosco Take it easy
Race3043 2015-04-15 22:35:31 7 ITA 3676 ITA 2905 .../)...
Race3042 2015-04-15 22:34:45 8 ligure Agilulfo Lintel
Race3041 2015-04-15 22:33:39 8 mitch Smorza AQUA
Race3040 2015-04-15 22:30:51 8 ITA 1848 HELLO KITTY Take it easy
Race3039 2015-04-15 22:29:47 5 .../)... ITA 3676 M I N
Race3038 2015-04-15 22:29:03 8 veleno Jack Sparrow HappySailing
Race3037 2015-04-15 22:27:38 8 TWO ZDAMEN LNZ Mareama
Race3036 2015-04-15 22:25:56 8 heidi CICCI 7 Loshkin
Race3035 2015-04-15 22:24:20 8 bordtack loco ITA 1848
Race3034 2015-04-15 22:23:09 8 Jsail ITA 3676 FCM
Race3033 2015-04-15 22:22:14 8 santi Lintel Take it easy
Race3032 2015-04-15 22:20:35 8 LNZ Mareama twotwo Loshkin
Race3031 2015-04-15 22:18:59 8 r270 heidi PISKAREV GALOPIN SB3324RUS
Race3030 2015-04-15 22:18:00 8 veleno ZDAMEN ITA 1848
Race3029 2015-04-15 22:16:53 8 ITA 3676 ITA 2905 .../)...
Race3028 2015-04-15 22:15:51 8 FabioCaldeo Take it easy santi
Race3027 2015-04-15 22:14:50 8 LNZ Mareama orion Loshkin
Race3026 2015-04-15 22:13:58 8 PISKAREV GALOPIN SB3324RUS Cb2 zvezdochka
Race3025 2015-04-15 22:13:06 8 heidi ELIOTLUCAS 1 CICCI 7
Race3024 2015-04-15 22:11:32 8 ITA 1848 rosco Emme
Race3023 2015-04-15 22:10:52 8 pesadilla xR3 OCS RS
Race3022 2015-04-15 22:10:07 8 Take it easy santi veleno
Race3021 2015-04-15 22:09:04 8 Daidegas Loshkin twotwo
Race3020 2015-04-15 22:07:39 6 PISKAREV GALOPIN SB3324RUS Jack Sparrow WIND-BR-BZ
Race3019 2015-04-15 22:07:14 8 Vela Blanca ELIOTLUCAS 1 ESP202382
Race3018 2015-04-15 22:06:04 8 Pacaypalla Caronasca salinas
Race3017 2015-04-15 22:04:37 8 ZDAMEN ITA 1848 OCS RS
Race3016 2015-04-15 22:03:47 8 Lintel Ar PempO santi
Race3015 2015-04-15 22:01:35 8 veleno Jack Sparrow baguettau
Race3014 2015-04-15 22:00:40 8 Take it easy Vela Blanca suiius II
Race3013 2015-04-15 21:59:50 8 psst OmegaRG ELIOTLUCAS 1
Race3012 2015-04-15 21:59:12 8 ZDAMEN OCS RS ITA 1848
Race3011 2015-04-15 21:58:17 2 A Day Late And A Monkey Short MiMONEDA£££££££
Race3010 2015-04-15 21:57:06 8 santi Ar PempO Lintel
Race3009 2015-04-15 21:55:37 8 Daidegas pesadilla Atorado
Race3008 2015-04-15 21:54:17 8 ESP202382 Take it easy Hopeless Wanderer
Race3007 2015-04-15 21:53:42 8 OCS RS Jebedee DoodSail
Race3006 2015-04-15 21:52:10 8 ZDAMEN xR3 zepistacho
Race3005 2015-04-15 21:50:54 8 santi Ar PempO Lintel
Race3004 2015-04-15 21:49:47 8 Vela Blanca runny funny Jack Sparrow
Race3003 2015-04-15 21:48:30 8 Mizzica ESP202382 zvezdochka
Race3002 2015-04-15 21:47:22 8 heidi AcRibok OmegaRG
Race3001 2015-04-15 21:46:42 8 zepistacho xR3 DoodSail
Race3000 2015-04-15 21:45:36 8 OCS RS Lintel SPINOUT
Race2999 2015-04-15 21:44:33 8 TORNADO Ar PempO santi
Race2998 2015-04-15 21:43:46 8 DIEMSailing Jack Sparrow runny funny
Race2997 2015-04-15 21:42:39 8 Mizzica llhnumhs Brustolito
Race2996 2015-04-15 21:41:29 2 OmegaRG AcRibok
Race2995 2015-04-15 21:40:37 8 xR3 Vela Blanca DoodSail
Race2994 2015-04-15 21:39:56 8 orion ELIOTLUCAS 1 Bea857
Race2993 2015-04-15 21:39:10 8 Caronasca Mambo Negro SPINOUT
Race2992 2015-04-15 21:38:19 8 pesadilla Ar PempO Unicorn
Race2991 2015-04-15 21:37:02 8 Jack Sparrow mitch Take it easy
Race2990 2015-04-15 21:35:35 8 llhnumhs ligure Mizzica
Race2989 2015-04-15 21:33:58 8 AcRibok PISKAREV GALOPIN SB3324RUS xR3
Race2988 2015-04-15 21:32:58 8 aviso EST velocity
Race2987 2015-04-15 21:32:23 8 Baraonda ITA 1004 Unicorn Caronasca
Race2986 2015-04-15 21:31:34 8 pesadilla mitch 420
Race2985 2015-04-15 21:31:04 8 Take it easy Jack Sparrow DoodSail
Race2984 2015-04-15 21:30:21 8 orion CICCI 7 zepistacho